sat.trackr.live / text

‹ back to catalog

STARLINK-35921

NORAD 66640 · 2025-271Z

PAYLOAD ACTIVE UNKNOWN

§ Identity

Operator
Country
US
Launch date
2025-11-23
Launch site
AFWTR
Launch vehicle
Mass (kg)
RCS (m²)

Purposes: comms

External: N2YO · Heavens-Above · Gunter

§ Orbital elements

Epoch: 2026-05-24T23:52:34.608000Z

Period
94.10 min
Inclination
53.1600°
Eccentricity
0.0001279
Mean motion
15.30207774 rev/d
Perigee alt
474.3 km
Apogee alt
476.1 km
Semi-major
6,853.3 km
B*
4.9511e-4
RAAN
145.1971°
Arg perigee
62.9380°
Mean anomaly
297.1751°
Rev number
2,925

§ Raw data

STARLINK-359211 66640U 25271Z   26144.99484500  .00014336  00000+0  49511-3 0  99942 66640  53.1600 145.1971 0001279  62.9380 297.1751 15.30207774 29250

JSON: /api/v1/satellites/66640 · /tle

For live sub-satellite position, see the globe view (requires WebGL).

§ Visibility from observer

Set your observer location to see the next 7 days of passes ≥ 10°. The values pass through the URL so the page stays shareable.

No JS? Fill the form by hand. The geolocation button needs JavaScript.